User: anonymous   Login
Location: Unspecified
(0.0000°N, 0.0000°E)
Time: 02:09:47
(UTC+00:00)
Language:

STARLINK-30153 - Orbit

View from above orbital plane
View from above orbital plane
View from above satellite
View from above satellite

Ground track
Ground track

The orbit is defined by the following mean orbital elements,

1 57510U          26145.48144273 +.00000000 +00000-0 +94288-4 0 00007
2 57510  43.0055 302.0477 0002344 263.6057  96.4528 15.27573789    00
Epoch (UTC): 25 May 2026 11:33:16
Eccentricity: 0.0002344
inclination: 43.0055°
perigee height: 481 km
apogee height: 485 km
right ascension of ascending node: 302.0477°
argument of perigee: 263.6057°
revolutions per day: 15.27573789
mean anomaly at epoch: 96.4528°

The dashed part of the orbit path shows where the satellite is in the earth's shadow,  

DLR